Weather History for Tuscaloosa, AL

Change the Weather History Date:

Friday, August 30, 2013

  Actual Average Record
Temperature  
Mean Temperature 83 °F 80 °F  
Max Temperature 94 °F 91 °F 103 °F (1951)
Min Temperature 71 °F 69 °F 54 °F (1968)
Cooling Degree Days 17    
Growing Degree Days 32 (Base 50)    
Moisture  
Dew Point 73 °F    
Average Humidity 73    
Maximum Humidity 93    
Minimum Humidity 52    
Precipitation  
Precipitation 0.00 in 0.10 in 1.67 in (1973)
Month to date precipitation 4.02 3.20  
Year to date precipitation 38.82 35.77  
Sea Level Pressure  
Sea Level Pressure 29.97 in    
Wind  
Wind Speed 2 mph (West)    
Max Wind Speed 10 mph    
Max Gust Speed 16 mph    
Visibility 6 miles    
Events      
T = Trace of Precipitation, MM = Missing Value Source: NWS Daily Summary

Daily Weather History Graph

Daily Weather History Graph

Search for Another Location

Airport:

Trip Planner

Search our weather history database for the weather conditions in past years. The results will help you decide how hot, cold, wet, or windy it might be!

Date:

Astronomy

Aug. 30, 2013 Rise Set
Actual Time 6:23 AM CDT 7:17 PM CDT
Civil Twilight 5:58 AM CDT 7:43 PM CDT
Nautical Twilight 5:28 AM CDT 8:13 PM CDT
Astronomical Twilight 4:57 AM CDT 8:43 PM CDT
Moon 1:11 AM CDT 3:24 PM CDT
Length of Visible Light 13h 44m
Length of Day
12h 54m
Waning Crescent, 29% of the Moon is Illuminated
Aug 30
Waning Crescent
Sep 5
New
Sep 12
First Quarter
Sep 19
Full
Sep 26
Last Quarter

Hourly Weather History & Observations

Time (CDT) Temp. Heat Index Dew Point Humidity Pressure Visibility Wind Dir Wind Speed Gust Speed Precip Events Conditions
12:53 AM 73.9 °F - 72.0 °F 93% 29.99 in 4.0 mi Calm Calm - N/A   Clear
1:53 AM 73.0 °F - 71.1 °F 93% 29.98 in 4.0 mi Calm Calm - N/A   Clear
2:53 AM 73.0 °F - 71.1 °F 93% 29.98 in 5.0 mi Calm Calm - N/A   Clear
3:53 AM 72.0 °F - 70.0 °F 93% 29.98 in 5.0 mi Calm Calm - N/A   Clear
4:53 AM 72.0 °F - 70.0 °F 93% 29.99 in 5.0 mi Calm Calm - N/A   Clear
5:53 AM 71.1 °F - 70.0 °F 96% 29.99 in 4.0 mi Calm Calm - N/A   Clear
6:40 AM 71.6 °F - 69.8 °F 94% 30.01 in 2.5 mi Calm Calm - N/A   Clear
6:51 AM 71.6 °F - 69.8 °F 94% 30.01 in 3.0 mi Calm Calm - N/A   Clear
6:53 AM 71.1 °F - 70.0 °F 96% 30.00 in 3.0 mi Calm Calm - N/A   Clear
7:53 AM 75.9 °F - 72.0 °F 87% 30.01 in 5.0 mi Calm Calm - N/A   Clear
8:53 AM 80.1 °F 83.6 °F 71.1 °F 74% 30.02 in 6.0 mi Calm Calm - N/A   Haze
9:53 AM 84.0 °F 90.2 °F 73.0 °F 69% 30.03 in 6.0 mi Calm Calm - N/A   Haze
10:53 AM 88.0 °F 97.5 °F 75.0 °F 65% 30.02 in 7.0 mi Calm Calm - N/A   Clear
11:53 AM 91.0 °F 100.4 °F 73.9 °F 57% 30.01 in 8.0 mi Calm Calm - N/A   Scattered Clouds
12:53 PM 91.9 °F 101.3 °F 73.9 °F 55% 29.99 in 9.0 mi West 5.8 mph - N/A   Partly Cloudy
1:53 PM 93.0 °F 103.2 °F 73.9 °F 54% 29.96 in 10.0 mi WSW 9.2 mph - N/A   Scattered Clouds
2:53 PM 93.0 °F 103.2 °F 73.9 °F 54% 29.94 in 9.0 mi West 5.8 mph - N/A   Scattered Clouds
3:53 PM 93.0 °F 101.9 °F 73.0 °F 52% 29.93 in 10.0 mi West 6.9 mph - N/A   Partly Cloudy
4:53 PM 93.0 °F 101.9 °F 73.0 °F 52% 29.92 in 9.0 mi West 8.1 mph - N/A   Clear
5:53 PM 91.9 °F 101.3 °F 73.9 °F 55% 29.91 in 9.0 mi WNW 4.6 mph - N/A   Clear
6:53 PM 88.0 °F 97.5 °F 75.0 °F 65% 29.91 in 8.0 mi Calm Calm - N/A   Clear
7:53 PM 82.0 °F 89.4 °F 75.9 °F 82% 29.91 in 8.0 mi Calm Calm - N/A   Clear
8:53 PM 81.0 °F 87.3 °F 75.9 °F 85% 29.92 in 8.0 mi Calm Calm - N/A   Clear
9:53 PM 79.0 °F - 75.9 °F 90% 29.93 in 6.0 mi Calm Calm - N/A   Clear
10:53 PM 79.0 °F - 75.9 °F 90% 29.93 in 5.0 mi Calm Calm - N/A   Clear
11:53 PM 78.1 °F - 75.9 °F 93% 29.92 in 4.0 mi Calm Calm - N/A   Clear